FW9766 Weather Reports


Display with metric or nautical units.
time (UTC)temp
F
wind
direction
speed
MPH
gust
MPH
rain 1hr
in
rain 24hr
in
rain mn
in
humidity
%
barometer
mb
20260504081545 60 90 3.0 12.0 0.00 0.00 0.00 86 1016.5
20260504044545 60 78 1.0 3.0 0.00 0.00 0.00 74 1018.3
20260504043055 60 0 0.0 0.0 0.00 0.00 0.00 74 1018.2
20260504041545 61 0 0.0 0.0 0.00 0.00 0.00 72 1018.1
20260504040054 61 0 0.0 1.0 0.00 0.00 0.00 72 1018.1
20260504034552 61 0 0.0 0.0 0.00 0.00 0.00 72 1018.2
20260504033053 62 0 0.0 0.0 0.00 0.00 0.00 72 1018.3
20260504031547 62 0 0.0 0.0 0.00 0.00 0.00 70 1018.3
20260504030049 62 0 0.0 0.0 0.00 0.00 0.00 70 1018.3
20260504024542 62 0 0.0 1.0 0.00 0.00 0.00 70 1018.2
20260504023049 63 0 0.0 2.0 0.00 0.00 0.00 68 1018.4
20260504021548 63 0 0.0 3.0 0.00 0.00 0.00 67 1018.3
20260504020059 64 0 0.0 2.0 0.00 0.00 0.00 65 1018.2
20260504014551 65 0 0.0 1.0 0.00 0.00 0.00 62 1018.2
20260504013047 67 51 0.0 3.0 0.00 0.00 0.00 60 1018.2
20260504011545 68 0 0.0 3.0 0.00 0.00 0.00 59 1018.1
20260504010047 69 62 1.0 6.0 0.00 0.00 0.00 56 1018.0
20260504004548 70 67 2.0 8.0 0.00 0.00 0.00 54 1018.0
20260504003049 71 57 3.0 13.0 0.00 0.00 0.00 52 1018.0
20260504001548 72 93 3.0 10.0 0.00 0.00 0.00 50 1018.0
20260504000052 73 57 5.0 14.0 0.00 0.00 0.00 47 1018.1
20260503234543 74 86 4.0 13.0 0.00 0.00 0.00 47 1018.3
20260503233048 75 79 4.0 13.0 0.00 0.00 0.00 46 1018.3
20260503231541 75 123 5.0 15.0 0.00 0.00 0.00 44 1018.3
20260503224547 75 56 4.0 11.0 0.00 0.00 0.00 45 1018.5
20260503223043 76 59 7.0 16.0 0.00 0.00 0.00 45 1018.5
20260503221545 76 63 5.0 12.0 0.00 0.00 0.00 45 1018.6
20260503220051 76 34 6.0 16.0 0.00 0.00 0.00 45 1018.7
20260503214549 75 71 5.0 15.0 0.00 0.00 0.00 44 1019.2
20260503213049 76 94 5.0 12.0 0.00 0.00 0.00 41 1019.5
20260503211605 77 88 4.0 17.0 0.00 0.00 0.00 43 1019.9
20260503210046 76 348 4.0 16.0 0.00 0.00 0.00 42 1019.8
20260503204545 77 345 4.0 11.0 0.00 0.00 0.00 45 1020.2
20260503203047 75 352 2.0 11.0 0.00 0.00 0.00 44 1020.6
20260503201542 76 174 6.0 16.0 0.00 0.00 0.00 43 1021.0
20260503200056 75 95 4.0 12.0 0.00 0.00 0.00 46 1021.1
20260503194547 75 147 7.0 14.0 0.00 0.00 0.00 43 1021.4
20260503193055 75 73 2.0 10.0 0.00 0.00 0.00 47 1021.7
20260503191545 75 93 4.0 12.0 0.00 0.00 0.00 47 1021.8
20260503190047 74 115 7.0 15.0 0.00 0.00 0.00 44 1022.2
20260503184559 74 76 5.0 13.0 0.00 0.00 0.00 45 1022.4
20260503183047 73 67 4.0 10.0 0.00 0.00 0.00 48 1022.6
20260503181608 72 108 7.0 14.0 0.00 0.00 0.00 49 1022.8
20260503180106 72 112 6.0 16.0 0.00 0.00 0.00 49 1023.1
20260503174552 71 111 4.0 13.0 0.00 0.00 0.00 48 1023.2
20260503173059 71 93 4.0 12.0 0.00 0.00 0.00 55 1023.5
20260503171552 71 85 7.0 15.0 0.00 0.00 0.00 52 1023.7